TimeCST,TemperatureF,Dew PointF,Humidity,Sea Level PressureIn,VisibilityMPH,Wind Direction,Wind SpeedMPH,Gust SpeedMPH,PrecipitationIn,Events,Conditions,WindDirDegrees,DateUTC
12:53 AM,37.9,27.0,65,29.74,10.0,SSW,15.0,-,N/A,,Clear,200,2012-12-18 06:53:00
1:53 AM,37.0,26.1,65,29.72,10.0,SSW,13.8,-,N/A,,Clear,200,2012-12-18 07:53:00
2:53 AM,37.0,26.1,65,29.72,10.0,SW,15.0,-,N/A,,Clear,220,2012-12-18 08:53:00
3:53 AM,37.9,26.1,62,29.73,10.0,SW,16.1,-,N/A,,Clear,230,2012-12-18 09:53:00
4:53 AM,39.9,26.1,58,29.72,10.0,WSW,15.0,-,N/A,,Clear,250,2012-12-18 10:53:00
5:53 AM,42.1,28.0,58,29.74,10.0,West,13.8,-,N/A,,Clear,270,2012-12-18 11:53:00
6:53 AM,44.1,28.0,53,29.74,10.0,WNW,13.8,21.9,N/A,,Clear,290,2012-12-18 12:53:00
7:53 AM,37.9,27.0,65,29.78,10.0,West,9.2,-,N/A,,Clear,260,2012-12-18 13:53:00
8:53 AM,46.9,28.0,48,29.80,10.0,NW,16.1,25.3,N/A,,Clear,320,2012-12-18 14:53:00
9:53 AM,52.0,26.1,37,29.80,10.0,NNW,19.6,-,N/A,,Clear,330,2012-12-18 15:53:00
10:53 AM,55.9,28.0,34,29.82,10.0,North,16.1,-,N/A,,Clear,350,2012-12-18 16:53:00
11:53 AM,59.0,26.1,28,29.82,10.0,North,15.0,-,N/A,,Clear,10,2012-12-18 17:53:00
12:53 PM,62.1,19.0,19,29.80,10.0,NNE,17.3,-,N/A,,Clear,20,2012-12-18 18:53:00
1:53 PM,62.1,19.0,19,29.79,10.0,NE,12.7,-,N/A,,Clear,40,2012-12-18 19:53:00
2:53 PM,62.1,16.0,17,29.78,10.0,ENE,9.2,-,N/A,,Clear,60,2012-12-18 20:53:00
3:53 PM,62.1,18.0,18,29.78,10.0,ENE,12.7,-,N/A,,Clear,70,2012-12-18 21:53:00
4:53 PM,55.9,21.0,26,29.80,10.0,East,8.1,-,N/A,,Clear,90,2012-12-18 22:53:00
5:53 PM,50.0,21.0,32,29.80,10.0,East,5.8,-,N/A,,Clear,90,2012-12-18 23:53:00
6:53 PM,46.0,23.0,40,29.81,10.0,East,8.1,-,N/A,,Clear,80,2012-12-19 00:53:00
7:53 PM,46.9,21.0,36,29.81,10.0,East,6.9,-,N/A,,Clear,100,2012-12-19 01:53:00
8:53 PM,46.9,21.9,37,29.78,10.0,East,9.2,-,N/A,,Clear,90,2012-12-19 02:53:00
9:53 PM,42.1,23.0,47,29.77,10.0,East,8.1,-,N/A,,Clear,80,2012-12-19 03:53:00
10:53 PM,39.9,23.0,51,29.76,10.0,ENE,3.5,-,N/A,,Clear,70,2012-12-19 04:53:00
11:53 PM,43.0,25.0,49,29.74,10.0,East,6.9,-,N/A,,Clear,100,2012-12-19 05:53:00